Waarnemingen

Advertentie
Mijn weer
Groningen Eelde, Nederland (6280): temperatuur & dauwpunt: 12.12.2017 09:00:00 - 18.12.2017 09:00:00 (CET)Groningen Eelde, Nederland (6280): temperatuur 5cm: 12.12.2017 09:00:00 - 18.12.2017 09:00:00 (CET)Groningen Eelde, Nederland (6280): windsnelheid & windstoten: 12.12.2017 09:00:00 - 18.12.2017 09:00:00 (CET)Groningen Eelde, Nederland (6280): windrichting: 12.12.2017 09:00:00 - 18.12.2017 09:00:00 (CET)Groningen Eelde, Nederland (6280): luchtdruk: 12.12.2017 09:00:00 - 18.12.2017 09:00:00 (CET)Groningen Eelde, Nederland (6280): zicht: 12.12.2017 09:00:00 - 18.12.2017 09:00:00 (CET)Groningen Eelde, Nederland (6280): neerslag: 12.12.2017 09:00:00 - 18.12.2017 09:00:00 (CET)
Datum & Tijd tt [°C] td [°C] tt 5cm [°C] ff [km/u] ff [kn] fx [km/u] fx [kn] dd ppp [hPa] vv [km] rr [mm]
18.12.2017 09:00:00 1,8 1,5 1,8 4 2 11 6 - 1020,0 3,3 0,0
18.12.2017 08:00:00 1,7 1,7 1,7 8 4 11 6 ZZO 1018,6 3,3 0,0
18.12.2017 07:00:00 1,5 1,5 1,5 8 4 14 8 ZZO 1017,7 3,4 0,1
18.12.2017 06:00:00 1,5 1,4 1,4 8 4 14 8 ZZO 1016,6 5 0,0
18.12.2017 05:00:00 1,4 1,4 1,4 9 5 18 10 ZO 1015,8 6 0,0
18.12.2017 04:00:00 1,5 1,3 1,5 13 7 22 12 Z 1015,3 8 0,0
18.12.2017 03:00:00 1,5 1,0 1,4 16 9 29 16 Z 1015,0 5 0,8
18.12.2017 02:00:00 1,4 0,8 1,3 24 13 40 21 Z 1014,8 8 0,2
18.12.2017 01:00:00 1,3 0,8 1,2 22 12 40 21 Z 1015,3 4,8 0,5
18.12.2017 00:00:00 0,9 0,5 0,7 21 11 36 19 Z 1015,9 3,5 2,1
17.12.2017 23:00:00 2,5 1,6 2,3 24 13 40 21 Z 1017,1 5 1,6
17.12.2017 22:00:00 3,3 2,3 3,0 21 11 32 18 Z 1017,9 10 0,4
17.12.2017 21:00:00 3,4 2,2 3,1 22 12 32 18 ZZW 1018,7 10 0,0
17.12.2017 20:00:00 3,3 2,0 2,8 18 10 29 16 Z 1018,9 10 0,0
17.12.2017 19:00:00 3,0 1,7 2,4 16 9 - - ZZW 1019,6 10 0,0
17.12.2017 18:00:00 2,7 1,5 2,0 16 9 25 14 ZZW 1020,2 10 0,0
17.12.2017 17:00:00 2,5 1,4 1,4 13 7 18 10 Z 1020,7 10 0,0
17.12.2017 16:00:00 2,1 1,2 0,7 11 6 14 8 ZW 1021,1 10 0,0
17.12.2017 15:00:00 3,8 2,3 3,6 11 6 14 8 ZW 1021,3 10 0,0
17.12.2017 14:00:00 4,7 2,3 4,7 13 7 22 12 WZW 1020,9 10 0,0
17.12.2017 13:00:00 5,1 2,5 5,3 11 6 14 8 WZW 1021,1 10 0,0
17.12.2017 12:00:00 4,2 2,4 4,2 9 5 14 8 WZW 1021,2 10 0,0
17.12.2017 11:00:00 2,6 1,9 2,7 5 3 11 6 WZW 1021,5 10 0,0
17.12.2017 10:00:00 1,0 0,2 -1,4 5 3 14 8 W 1021,1 10 0,0
17.12.2017 09:00:00 -3,2 -3,7 -5,1 8 4 14 8 WZW 1020,4 10 0,0
17.12.2017 08:00:00 -2,7 -2,9 -4,9 5 3 11 6 W 1019,7 10 0,0
17.12.2017 07:00:00 -2,0 -2,3 -4,3 8 4 11 6 W 1019,0 10 0,0
17.12.2017 06:00:00 -0,7 -1,3 -1,9 8 4 18 10 W 1018,8 10 0,0
17.12.2017 05:00:00 -1,7 -2,2 -3,1 9 5 14 8 WZW 1017,9 10 0,0
17.12.2017 04:00:00 1,1 0,3 -0,6 9 5 18 10 W 1017,4 10 0,0
17.12.2017 03:00:00 0,1 -0,4 -1,0 11 6 14 8 W 1016,8 10 0,0
17.12.2017 02:00:00 0,5 0,0 -0,3 11 6 14 8 W 1016,2 10 0,0
17.12.2017 01:00:00 1,4 0,6 0,6 11 6 29 16 W 1015,7 10 0,0
17.12.2017 00:00:00 2,3 1,2 1,4 15 8 22 12 W 1015,2 10 0,0
16.12.2017 23:00:00 2,0 1,1 0,9 11 6 18 10 W 1014,9 10 0,2
16.12.2017 22:00:00 1,5 0,6 0,5 13 7 18 10 WZW 1014,0 10 0,0
16.12.2017 21:00:00 1,8 0,9 1,0 15 8 25 14 WZW 1013,5 10 0,4
16.12.2017 20:00:00 2,8 1,8 1,6 11 6 22 12 W 1013,2 10 0,5
16.12.2017 19:00:00 2,4 1,4 1,5 13 7 22 12 WNW 1012,2 10 0,5
16.12.2017 18:00:00 1,9 1,0 1,2 13 7 29 16 WNW 1011,8 10 0,9
16.12.2017 17:00:00 2,5 1,3 1,5 9 5 18 10 W 1011,1 10 0,3
16.12.2017 16:00:00 3,4 1,6 2,5 11 6 29 16 W 1010,4 10 0,2
16.12.2017 15:00:00 4,5 1,6 4,1 15 8 36 19 W 1009,6 10 0,4
16.12.2017 14:00:00 5,5 2,8 5,3 13 7 22 12 W 1009,0 10 0,0
16.12.2017 13:00:00 4,3 2,1 4,1 18 10 25 14 WNW 1008,8 10 0,2
16.12.2017 12:00:00 4,5 2,3 4,8 11 6 18 10 WZW 1008,3 10 0,0
16.12.2017 11:00:00 3,5 2,0 3,4 11 6 22 12 W 1007,9 10 0,0
16.12.2017 10:00:00 1,6 1,0 0,9 13 7 25 14 WZW 1007,2 10 0,7
16.12.2017 09:00:00 1,8 0,8 0,7 11 6 18 10 WZW 1006,6 10 0,2
16.12.2017 08:00:00 2,2 0,8 1,5 18 10 32 18 W 1005,8 10 0,0
16.12.2017 07:00:00 1,5 -0,1 0,1 9 5 22 12 W 1005,2 10 0,0
16.12.2017 06:00:00 1,1 0,1 0,0 13 7 18 10 WZW 1004,7 10 0,0
16.12.2017 05:00:00 0,8 0,1 -0,7 9 5 25 14 WZW 1004,3 6 0,0
16.12.2017 04:00:00 1,9 0,7 -0,8 9 5 25 14 W 1004,0 4,2 0,0
16.12.2017 03:00:00 0,8 0,5 -0,2 13 7 18 10 WZW 1003,4 2,4 0,0
16.12.2017 02:00:00 1,4 1,0 0,9 11 6 18 10 WZW 1002,8 3,2 0,0
16.12.2017 01:00:00 1,6 1,2 1,1 11 6 18 10 WZW 1002,6 4,2 0,0
16.12.2017 00:00:00 1,9 1,3 1,5 9 5 14 8 ZW 1002,1 4,2 0,0
15.12.2017 23:00:00 1,3 0,5 0,2 5 3 14 8 Z 1001,6 5 0,0
15.12.2017 22:00:00 2,0 1,5 1,7 8 4 18 10 ZW 1001,2 4,6 0,0
15.12.2017 21:00:00 2,3 1,6 2,3 8 4 14 8 WNW 1001,2 5 0,0
15.12.2017 20:00:00 2,6 1,8 2,6 8 4 14 8 WNW 1000,4 5 0,0
15.12.2017 19:00:00 2,8 1,9 2,6 8 4 11 6 WNW 999,4 5 0,0
15.12.2017 18:00:00 2,8 1,7 2,7 8 4 14 8 W 998,7 6 0,0
15.12.2017 17:00:00 3,0 1,9 2,8 8 4 18 10 W 998,2 7 0,0
15.12.2017 16:00:00 3,1 2,1 3,0 5 3 18 10 W 997,5 6 0,0
15.12.2017 15:00:00 3,4 2,2 3,3 8 4 22 12 ZW 996,5 6 0,0
15.12.2017 14:00:00 3,6 2,4 3,6 11 6 18 10 Z 995,7 7 0,0
15.12.2017 13:00:00 3,4 2,4 3,4 13 7 22 12 Z 995,2 6 0,0
15.12.2017 12:00:00 3,4 2,3 3,5 9 5 18 10 Z 994,5 5 0,0
15.12.2017 11:00:00 3,0 2,0 3,0 9 5 18 10 ZZO 994,3 5 0,0
15.12.2017 10:00:00 2,8 1,9 2,7 11 6 22 12 Z 993,4 5 0,0
15.12.2017 09:00:00 2,5 1,6 2,3 15 8 25 14 Z 992,5 5 0,0
15.12.2017 08:00:00 2,2 1,5 2,0 15 8 25 14 Z 992,1 3,9 0,0
15.12.2017 07:00:00 1,8 1,4 1,7 13 7 25 14 Z 991,5 3,1 0,0
15.12.2017 06:00:00 1,9 1,3 1,8 18 10 25 14 ZZW 991,0 3,8 0,0
15.12.2017 05:00:00 1,9 1,4 1,7 16 9 22 12 ZZW 990,3 3,6 0,0
15.12.2017 04:00:00 1,8 1,3 1,3 13 7 22 12 Z 989,6 4,6 0,0
15.12.2017 03:00:00 2,3 1,6 1,9 15 8 22 12 Z 989,0 4,7 0,0
15.12.2017 02:00:00 2,7 1,9 2,4 13 7 29 16 ZZW 988,8 5 0,0
15.12.2017 01:00:00 2,7 1,9 2,4 16 9 29 16 ZZW 988,4 6 0,0
15.12.2017 00:00:00 2,6 1,8 2,3 15 8 25 14 ZZW 988,5 6 0,0
14.12.2017 23:00:00 2,5 1,7 2,1 18 10 29 16 ZZW 988,3 6 0,0
14.12.2017 22:00:00 1,7 1,1 0,9 15 8 22 12 ZZW 988,1 5 0,0
14.12.2017 21:00:00 2,2 1,4 1,7 18 10 29 16 ZZW 988,3 8 0,0
14.12.2017 20:00:00 2,5 1,6 2,0 21 11 32 18 ZZW 988,3 10 0,0
14.12.2017 19:00:00 3,4 2,4 3,0 21 11 32 18 ZZW 988,3 10 0,0
14.12.2017 18:00:00 3,4 2,6 3,1 16 9 25 14 ZZW 988,5 10 0,1
14.12.2017 17:00:00 3,6 2,6 3,2 16 9 25 14 Z 988,6 10 0,0
14.12.2017 16:00:00 3,1 2,2 2,5 15 8 22 12 ZZW 988,4 10 0,0
14.12.2017 15:00:00 3,8 2,1 3,4 16 9 32 18 ZW 988,4 10 0,0
14.12.2017 14:00:00 4,5 2,5 4,7 22 12 32 18 ZW 988,4 10 0,0
14.12.2017 13:00:00 4,8 2,5 5,2 22 12 36 19 ZW 988,5 10 0,0
14.12.2017 12:00:00 4,4 2,7 4,7 24 13 36 19 ZW 988,5 10 0,0
14.12.2017 11:00:00 2,6 2,0 1,8 22 12 29 16 ZZW 988,7 10 0,0
14.12.2017 10:00:00 1,6 1,2 1,1 21 11 32 18 WZW 988,0 6 1,4
14.12.2017 09:00:00 0,6 0,3 0,4 13 7 22 12 WZW 987,7 5 1,1
14.12.2017 08:00:00 0,5 0,3 0,3 22 12 32 18 ZW 987,2 2,6 1,3
14.12.2017 07:00:00 1,3 0,6 1,1 26 14 40 21 W 986,8 4,3 1,1
14.12.2017 06:00:00 3,1 1,9 2,5 16 9 22 12 ZW 985,4 10 0,0
14.12.2017 05:00:00 2,5 1,5 2,0 13 7 25 14 WZW 985,1 10 0,0
14.12.2017 04:00:00 3,1 1,7 2,3 21 11 32 18 ZW 984,8 10 0,0
14.12.2017 03:00:00 3,0 1,6 1,9 18 10 29 16 WZW 984,4 10 0,0
14.12.2017 02:00:00 3,5 2,2 2,5 22 12 43 23 WZW 983,8 10 0,0
14.12.2017 01:00:00 4,0 2,9 3,4 21 11 36 19 WZW 984,1 10 0,3
14.12.2017 00:00:00 4,2 2,8 3,8 26 14 50 27 W 983,2 10 1,1
13.12.2017 23:00:00 5,2 4,3 4,6 29 16 50 27 ZZW 981,7 10 1,3
13.12.2017 22:00:00 4,8 4,1 4,2 26 14 43 23 Z 982,4 6 2,4
13.12.2017 21:00:00 4,3 3,7 4,0 24 13 40 21 Z 984,3 10 0,4
13.12.2017 20:00:00 4,6 3,7 4,0 24 13 40 21 Z 986,8 8 0,0
13.12.2017 19:00:00 4,2 3,6 3,7 24 13 36 19 ZZW 988,9 7 0,0
13.12.2017 18:00:00 3,9 3,7 3,3 21 11 32 18 ZZW 990,6 5 0,0
13.12.2017 17:00:00 3,1 3,0 2,6 16 9 32 18 ZZW 991,7 2,5 0,0
13.12.2017 16:00:00 2,8 2,6 2,4 21 11 32 18 ZZW 992,7 9 0,0
13.12.2017 15:00:00 2,8 2,3 2,1 21 11 32 18 ZZW 993,3 10 0,5
13.12.2017 14:00:00 2,6 2,1 - 24 13 43 23 Z 994,2 6 0,6
13.12.2017 13:00:00 2,5 1,7 - 28 15 43 23 Z 995,7 10 0,2
13.12.2017 12:00:00 2,1 1,3 1,4 29 16 50 27 Z 997,2 7 0,0
13.12.2017 11:00:00 1,8 0,9 1,3 31 17 54 29 Z 998,7 8 0,2
13.12.2017 10:00:00 1,8 0,7 1,2 31 17 47 25 Z 999,9 9 1,0
13.12.2017 09:00:00 2,1 0,6 1,5 28 15 47 25 Z 1001,2 10 0,1
13.12.2017 08:00:00 2,1 0,3 1,4 29 16 43 23 Z 1002,5 10 0,0
13.12.2017 07:00:00 2,0 0,1 1,4 29 16 43 23 Z 1003,1 10 0,0
13.12.2017 06:00:00 2,0 0,0 1,4 28 15 50 27 Z 1004,4 10 0,0
13.12.2017 05:00:00 1,7 0,0 1,1 29 16 43 23 Z 1005,6 10 0,0
13.12.2017 04:00:00 1,6 -0,2 1,0 28 15 40 21 ZZW 1006,9 10 0,0
13.12.2017 03:00:00 1,4 -0,3 0,7 24 13 40 21 ZZW 1007,7 9 0,0
13.12.2017 02:00:00 1,1 -0,2 0,5 24 13 36 19 Z 1008,5 6 0,0
13.12.2017 01:00:00 1,3 0,6 0,8 24 13 36 19 ZZW 1009,2 4,1 0,0
13.12.2017 00:00:00 1,1 0,7 0,7 26 14 40 21 ZZW 1010,1 2,9 0,0
12.12.2017 23:00:00 0,4 0,0 0,2 31 17 43 23 ZZW 1010,3 2,8 0,0
12.12.2017 22:00:00 0,2 -0,5 -0,4 18 10 29 16 ZZW 1010,0 7 0,0
12.12.2017 21:00:00 0,4 -0,2 -0,3 15 8 25 14 ZZW 1010,0 8 0,0
12.12.2017 20:00:00 0,9 0,1 0,0 16 9 29 16 ZZW 1009,9 10 0,0
12.12.2017 19:00:00 1,1 0,3 0,6 21 11 29 16 ZW 1009,4 10 0,0
12.12.2017 18:00:00 1,1 -0,1 0,2 16 9 25 14 ZW 1009,0 10 0,0
12.12.2017 17:00:00 2,3 0,1 1,1 16 9 25 14 ZW 1008,3 10 0,0
12.12.2017 16:00:00 1,6 0,7 1,0 15 8 18 10 ZW 1007,2 10 0,0
12.12.2017 15:00:00 1,8 1,1 1,4 15 8 18 10 ZW 1005,9 10 0,0
12.12.2017 14:00:00 1,6 1,1 1,2 16 9 18 10 ZW 1005,2 10 0,1
12.12.2017 13:00:00 1,7 1,2 1,2 13 7 22 12 WZW 1004,3 10 0,1
12.12.2017 12:00:00 1,6 1,3 1,2 8 4 18 10 W 1003,3 10 1,1
12.12.2017 11:00:00 0,8 0,5 0,5 16 9 32 18 WNW 1002,3 2,2 2,0
12.12.2017 10:00:00 1,7 0,6 1,3 18 10 32 18 WNW 1000,5 10 0,6
12.12.2017 09:00:00 1,9 1,2 1,3 11 6 25 14 W 998,8 10 0,4

tt = temperatuur
td = dauwpunt
tt 5cm = temperatuur 5cm
ff = windsnelheid
fx = windstoten
dd = windrichting
ppp = luchtdruk
vv = zicht
rr = neerslag

Weerstations in de omgeving